www.pogodaiklimat.ru

Погода и климат >> Архив погоды >> Корея >> Ичхон


ПОГОДА в Ичхоне

  • Прогноз погоды в Ичхоне
  • Монитор погоды в Ичхоне

АРХИВ ПОГОДЫ в Ичхоне

Время (UTC), дата Ветер
(напр.,м/с)
 
Видим.   Явления Облачность Т
(С)
Тd
(С)
f
(%)
Тe
(С)
Тes
(С)
Комфортность P
(гПа)
Po
(гПа)
Тmin
(С)
Tmax
(С)
R
(мм)
R24
(мм)
S
(см)
21 15.09 штиль 0 20 км 10/0
[]
+18.8 +17.2 90 +20 +20 1011.0 1001.7
00 16.09 СВ 1 20 км 8/0
[]
+22.5 +17.6 74 +28 +31 душно 1011.8 1002.6 +18.6
03 16.09 СВ 2 19 км 3/0
[]
+27.1 +16.0 51 +30 +42 душно 1010.9 1001.9
06 16.09 СВ 1 19 км ясно +29.2 +16.0 45 +32 +43 душно 1009.6 1000.7
09 16.09 С 2 20 км ясно +25.5 +15.5 54 +29 +29 душно 1010.6 1001.5
12 16.09 штиль 0 20 км 6/0
[]
+20.7 +13.8 65 +23 +23 комфорт 1012.6 1003.3 +29.9
15 16.09 С 1 20 км ясно +16.6 +10.4 67 +17 +17 1013.9 1004.5
18 16.09 20 км 6/0
[]
+14.2 +10.9 81 1014.7 1005.2
21 16.09 штиль 0 20 км ясно +12.8 +11.6 92 +12 +12 1016.0 1006.4
00 17.09 СВ 1 20 км ясно +19.1 +12.3 65 +21 +27 комфорт 1017.0 1007.7 +12.0
03 17.09 В 2 19 км 4/0
[]
+25.7 +11.0 40 +27 +38 жарко 1016.2 1007.0
06 17.09 СЗ 2 20 км 4/0
[]
+28.0 +13.5 41 +30 +37 жарко 1014.0 1005.0
09 17.09 С 1 20 км 9//
[]
+24.4 +15.0 56 +27 +27 жарко 1014.2 1005.1
12 17.09 штиль 0 20 км ?/? +21.1 +15.1 69 +24 +24 комфорт 1015.4 1006.1 +29.2
15 17.09 штиль 0 19 км 10//
[]
+19.3 +16.7 85 +21 +21 комфорт 1015.0 1005.7
18 17.09 СВ 1 15 км ясно +17.8 +16.4 92 +19 +19 1015.5 1006.1
21 17.09 штиль 0 12 км 6/0
[]
+15.9 +15.0 94 +16 +16 1015.9 1006.4
00 18.09 В 1 17 км ясно +22.2 +17.3 74 +27 +33 душно 1016.7 1007.5 +15.2
03 18.09 СЗ 2 19 км ясно +27.7 +11.6 37 +29 +43 жарко 1016.4 1007.3
06 18.09 СЗ 2 19 км ясно +27.8 +8.6 30 +28 +37 жарко 1014.8 1005.7
09 18.09 З 2 20 км ясно +23.2 +9.2 41 +25 +25 комфорт 1015.7 1006.5
12 18.09 З 2 20 км ясно +18.2 +8.1 52 +19 +19 1017.9 1008.5 +28.1
15 18.09 С 1 20 км 1/0
[]
+13.7 +8.5 71 +14 +14 1018.9 1009.3
18 18.09 штиль 0 20 км ясно +12.0 +9.8 86 +11 +11 1019.5 1009.8
21 18.09 штиль 0 17 км ясно +10.6 +9.5 93 +10 +10 1020.4 1010.7
00 19.09 В 1 17 км ясно +17.7 +13.2 75 +19 +25 1021.0 1011.6 +10.3
03 19.09 С 2 17 км 3/0
[]
+22.6 +13.6 57 +26 +37 жарко 1019.3 1010.1
06 19.09 СВ 2 19 км 5/0
[]
+25.4 +13.2 47 +27 +34 жарко 1017.3 1008.1
09 19.09 штиль 0 20 км 9/3
[]
+22.3 +13.6 58 +25 +25 комфорт 1016.5 1007.3
12 19.09 СЗ 1 20 км 8/0
[]
+19.4 +9.5 53 +21 +21 комфорт 1017.7 1008.4 +26.4
15 19.09 ЮВ 1 18 км 9/8
[]
+15.4 +11.9 80 +16 +16 1017.7 1008.2
18 19.09 С 1 15 км 9/0
[]
+13.8 +12.1 89 +14 +14 1017.7 1008.1
21 19.09 СВ 1 13 км 10/6
[]
+13.6 +12.3 92 +14 +14 1017.5 1007.9
00 20.09 В 1 17 км ?/? +17.7 +13.8 78 +19 +22 1018.4 1009.0 +13.3
03 20.09 В 1 19 км 10/9
[]
+21.5 +14.3 64 +24 +25 комфорт 1017.9 1008.6
06 20.09 В 1 20 км ?/? +21.8 +15.3 67 +25 +25 комфорт 1017.2 1007.9
09 20.09 В 1 20 км 10//
[]
+20.0 +15.2 74 +23 +24 комфорт 1017.8 1008.4
12 20.09 штиль 0 20 км 4/0
[]
+18.4 +15.2 82 +19 +19 1019.7 1010.3 +22.7
15 20.09 СВ 1 12 км 10/10
[]
+16.8 +15.3 91 +18 +18 1020.3 1010.8
18 20.09 СВ 1 20 км ?/? +16.4 +12.9 80 +17 +17 1019.5 1010.0
21 20.09 СВ 1 20 км 9/5
[]
+16.4 +12.1 76 +17 +17 1019.5 1010.0
00 21.09 СВ 3 20 км ?/? +17.6 +13.1 75 +18 +18 1020.5 1011.1 +15.9
03 21.09 СВ 1 20 км 10/10
[]
+20.1 +15.7 76 +24 +24 комфорт 1019.7 1010.3
06 21.09 В 1 9000 м ?/? +17.6 +16.9 96 +19 +21 1018.9 1009.5 4
09 21.09 ЮВ 2 7000 м 10//
[]
+16.5 +16.0 97 +17 +17 1020.5 1011.0
12 21.09 7000 м ?/? +15.3 +15.1 99 1020.7 1011.1 +20.2 17
15 21.09 СВ 1 6000 м 10// 2000 м
[]
+14.9 +14.8 99 +15 +15 1020.6 1011.0
18 21.09 СВ 2 16 км ?/? +14.5 +14.3 99 +14 +14 1017.9 1008.4 12
21 21.09 СВ 2 19 км 10/10
[]
+14.5 +14.1 97 +14 +14 1016.8 1007.3
00 22.09 СВ 4 20 км н/о +15.6 +15.2 97 +15 +15 1015.6 1006.1 +14.3 17
03 22.09 СВ 1 14 км 10/9 1000 м
[]
+15.7 +15.5 99 +16 +17 1014.3 1004.8
06 22.09 штиль 0 4800 м ?/? +16.2 +16.1 99 +16 +19 1011.6 1002.2 19
09 22.09 СВ 3 16 км 10/8 1500 м
[]
+15.2 +14.3 94 +14 +14 1010.5 1001.0
12 22.09 С 5 20 км ?/? +16.3 +13.2 82 +15 +15 1009.8 1000.4 +16.6 30
15 22.09 СВ 3 20 км 10/0
[]
+18.0 +12.4 70 +18 +18 1009.3 1000.0

 

Местоположение метеостанции Ичхон (Корея): широта 37.27 долгота 127.48 высота над уровнем моря 91 м.

В архиве по умолчанию представлена погода в Ичхоне за последнюю неделю. Архивные данные за месяц целиком и за предыдущие месяцы, начиная с января 2011 года, Вы можете получить, выбрав интересующий диапазон дат из раскрывающегося списка и нажав кнопку "Ввод!".


*Определитесь, кто Вы:
робот инопланетянин человек

Внимание! Время в таблицах - всемирное. Для получения местного времени необходимо прибавить поправку, которая равна 9 ч.

Смотрите также архив погоды в соседних городах и на ближайших метеорологических станциях:

Погода в Вонджу (Корея) (42 км)
Погода в Сувоне (Корея) (44 км)
Погода на Базе Camp Humphreys (Корея) (53 км)
Погода в Сеуле (Корея) (57 км)
Погода в Чхонане (Корея) (64 км)
Погода в Чунчоне (Корея) (71 км)
Погода в Чхонджу (Корея) (71 км)
Погода в Чхунчхоне (Корея) (73 км)
Погода в Букчунчеоне (Корея) (75 км)
Погода в Инчхоне (Корея) (78 км)

Пояснения к столбцам:

Ветер - указаны скорость ветра в м/с - средняя за 10 мин, порывы в срок и между сроками (в фигурных скобках) и направление, откуда дует ветер: С - северный, СВ - северо-восточный, В - восточный, ЮВ - юго-восточный, Ю - южный, ЮЗ - юго-западный, З - западный, СЗ - северо-западный.
Видимость - горизонтальная дальность видимости в метрах или километрах. При видимости от 1 до 10 км при отсутствии осадков обычно наблюдается дымка, при ухудшении видимости до 1 км и менее - туман. В сухую погоду видимость может ухудшаться дымом, пылью или мглою.
Явления - указаны атмосферные явления, наблюдавшиеся в срок или в последний час перед сроком; фигурными скобками обозначены явления, наблюдавшиеся между сроками (за 1-3 часа до срока); квадратными скобками обозначены град или гололедные отложения с указанием их диаметра в мм.
Облачность - указаны через наклонную черту общая и нижняя облачность в баллах и высота нижней границы облаков в метрах; квадратными скобками обозначены формы облаков: Ci - перистые, Cs - перисто-слоистые, Cc - перисто-кучевые, Ac - высококучевые, As - высокослоистые, Sc - слоисто-кучевые, Ns - слоисто-дождевые, Cu - кучевые, Cb - кучево-дождевые. Подробнее классификацию облаков см. в Атласе облаков (PDF).
T - Температура воздуха - температура, измеренная на высоте 2 м над землей.
Td - Температура точки росы - температура, при понижении до которой содержащийся в воздухе водяной пар достигнет насыщения.
f - Относительная влажность воздуха - влажноcть воздуха, измеренная на высоте 2 м над землей.
Te - Эффективная температура - температура, которую ощущает одетый по сезону человек в тени. Характеристика душности погоды. При расчете учитывается влияние влажности воздуха и скорости ветра на теплоощущения человека.
Tes - Эффективная температура на солнце - температура, которую ощущает человек, с поправкой на солнечный нагрев. Характеристика знойности погоды. Зависит от высоты солнца над горизонтом, облачности и скорости ветра. Ночью, в пасмурную погоду, а также при ветре 12 м/с и более поправка равна нулю.
P - Атмосферное давление - приведенное к уровню моря атмосферное давление.
Po - Атмосферное давление - измеренное на уровне метеостанции атмосферное давление.
Tmin - Минимальная температура - минимум температуры воздуха на высоте 2 м над землей.
Tmax - Максимальная температура - максимум температуры воздуха на высоте 2 м над землей.
R - Количество осадков - Количество выпавших осадков за период времени, мм. При наведении курсора мыши на число - период времени, за который выпало указанное количество осадков.
R24 - Количество осадков - Количество выпавших осадков за 24 часа, мм.
S - Снежный покров - Высота снежного покрова, см. При наведении курсора мыши на число - состояние снежного покрова и степень покрытия местности в баллах.